Jackson, WY

7:19 AM MST on December 13, 2019 (GMT -0700)
Jackson Hole

Weather History for KJAC - October, 2019

Change the Weather History Date:

Friday, October 4, 2019

  Actual Average Record
Temperature  
Mean Temperature 38 °F -  
Max Temperature 52 °F 59 °F 78 °F (1992)
Min Temperature 25 °F 25 °F 15 °F (1964)
Degree Days  
Heating Degree Days 27    
Moisture  
Dew Point 29 °F    
Average Humidity 82    
Maximum Humidity 96    
Minimum Humidity 39    
Precipitation  
Precipitation 0.03 in - - ()
Sea Level Pressure  
Sea Level Pressure 30.07 in    
Wind  
Wind Speed 7 mph ()    
Max Wind Speed 18 mph    
Max Gust Speed 25 mph    
Visibility 8.1 miles    
Events Rain , Snow    
Averages and records for this station are not official NWS values.
T = Trace of Precipitation, MM = Missing Value Source: Averaged Metar Reports

Daily Weather History Graph

Daily Weather History Graph

Search for Another Location

Airport or City:

Astronomy

Oct. 04, 2019 Rise Set
Actual Time 7:23 AM MDT 6:58 PM MDT
Civil Twilight 6:55 AM MDT 7:27 PM MDT
Nautical Twilight 6:21 AM MDT 8:00 PM MDT
Astronomical Twilight 5:48 AM MDT 8:34 PM MDT
Moon 2:09 PM MDT (10/4) 11:20 PM MDT (10/4)
Length of Visible Light 12h 32m
Length of Day
11h 35m
Waxing Crescent, 40% of the Moon is Illuminated
Oct 4
Waxing Crescent
Oct 5
First Quarter
Oct 13
Full
Oct 21
Last Quarter
Oct 27
New

Hourly Weather History & Observations

Time (MDT) Temp. Windchill Dew Point Humidity Pressure Visibility Wind Dir Wind Speed Gust Speed Precip Events Conditions
12:56 AM 28.0 °F 22.8 °F 24.1 °F 85% 30.03 in 10.0 mi North 4.6 mph - N/A   Clear
1:56 AM 30.0 °F 25.2 °F 25.0 °F 82% 29.99 in 10.0 mi NE 4.6 mph - N/A   Clear
2:56 AM 27.0 °F 21.6 °F 23.0 °F 85% 29.99 in 10.0 mi NNE 4.6 mph - N/A   Clear
3:56 AM 27.0 °F 21.6 °F 23.0 °F 85% 29.97 in 10.0 mi North 4.6 mph - N/A   Clear
4:56 AM 26.1 °F 19.4 °F 23.0 °F 88% 29.95 in 10.0 mi NE 5.8 mph - N/A   Clear
5:56 AM 25.0 °F 19.3 °F 21.0 °F 85% 29.96 in 10.0 mi NE 4.6 mph - N/A   Clear
6:56 AM 25.0 °F - 21.0 °F 85% 29.99 in 10.0 mi Calm Calm - N/A   Clear
7:56 AM 26.1 °F 20.5 °F 23.0 °F 88% 30.03 in 10.0 mi NNE 4.6 mph - N/A   Partly Cloudy
8:56 AM 30.0 °F 26.5 °F 25.0 °F 82% 30.05 in 10.0 mi North 3.5 mph - N/A   Clear
9:56 AM 37.9 °F - 25.0 °F 60% 30.01 in 10.0 mi Calm Calm - N/A   Clear
10:56 AM 44.1 °F 41.5 °F 27.0 °F 51% 29.98 in 10.0 mi ESE 4.6 mph - N/A   Partly Cloudy
12:56 PM 51.1 °F - 27.0 °F 39% 29.94 in 10.0 mi Variable 5.8 mph - N/A   Overcast
1:56 PM 45.0 °F 37.6 °F 28.9 °F 53% 29.96 in 10.0 mi WNW 17.3 mph - N/A   Overcast
2:56 PM 43.0 °F 35.1 °F 28.9 °F 58% 30.00 in 10.0 mi NW 17.3 mph 24.2 mph 0.00 in   Overcast
3:32 PM 35.6 °F 29.9 °F 30.2 °F 81% 30.04 in 5.0 mi Variable 6.9 mph - 0.00 in Snow Light Snow
3:51 PM 37.4 °F 30.8 °F 32.0 °F 81% 30.05 in 10.0 mi South 9.2 mph - 0.00 in Snow Light Snow
3:56 PM 37.0 °F 27.0 °F 32.0 °F 82% 30.14 in 10.0 mi SSW 18.4 mph 25.3 mph 0.00 in Snow Light Snow
4:29 PM 35.6 °F 26.6 °F 33.8 °F 93% 30.04 in 10.0 mi SSE 13.8 mph - 0.00 in   Overcast
4:56 PM 37.9 °F 31.5 °F 33.1 °F 83% 30.13 in 10.0 mi SSW 9.2 mph - 0.00 in   Overcast
5:22 PM 37.4 °F 30.8 °F 33.8 °F 87% 30.06 in 10.0 mi SW 9.2 mph - 0.00 in   Overcast
5:40 PM 37.4 °F 34.9 °F 33.8 °F 87% 30.06 in 10.0 mi WSW 3.5 mph - 0.00 in Rain Light Rain
5:56 PM 37.9 °F 31.5 °F 32.0 °F 79% 30.16 in 10.0 mi SSW 9.2 mph - 0.00 in   Overcast
6:31 PM 35.6 °F 27.5 °F 30.2 °F 81% 30.09 in 8.0 mi SW 11.5 mph - 0.00 in Rain Light Rain
6:43 PM 35.6 °F 27.1 °F 30.2 °F 81% 30.09 in 10.0 mi SSW 12.7 mph - 0.00 in Rain Light Rain
6:56 PM 36.0 °F 28.5 °F 28.9 °F 76% 30.18 in 10.0 mi SSW 10.4 mph - 0.00 in Rain Light Rain
7:56 PM 34.0 °F 25.5 °F 30.0 °F 85% 30.20 in 10.0 mi SSW 11.5 mph - 0.00 in   Overcast
8:18 PM 33.8 °F 25.8 °F 30.2 °F 87% 30.10 in 3.0 mi SSW 10.4 mph - 0.00 in Snow Light Snow
8:24 PM 33.8 °F 25.8 °F 30.2 °F 87% 30.10 in 2.5 mi SSW 10.4 mph - 0.00 in Snow Light Snow
8:33 PM 33.8 °F 25.3 °F 30.2 °F 87% 30.10 in 1.2 mi SSW 11.5 mph - 0.00 in Snow Light Snow
8:42 PM 33.8 °F 26.4 °F 30.2 °F 87% 30.10 in 1.0 mi South 9.2 mph - 0.00 in Snow Light Snow
8:52 PM 33.8 °F 25.8 °F 30.2 °F 87% 30.11 in 1.5 mi SSW 10.4 mph - 0.01 in Snow Light Snow
8:56 PM 33.1 °F 24.4 °F 30.9 °F 92% 30.19 in 1.5 mi South 11.5 mph - 0.01 in Snow Light Snow
9:18 PM 33.8 °F 24.8 °F 30.2 °F 87% 30.11 in 3.0 mi South 12.7 mph - 0.01 in Snow Light Snow
9:37 PM 33.8 °F 23.5 °F 32.0 °F 93% 30.12 in 9.0 mi South 16.1 mph 20.7 mph 0.02 in Snow Light Snow
9:56 PM 33.1 °F 22.2 °F 32.0 °F 96% 30.18 in 8.0 mi South 17.3 mph - 0.02 in Snow Light Snow
10:20 PM 33.8 °F 25.8 °F 32.0 °F 93% 30.14 in 8.0 mi SSE 10.4 mph - 0.00 in Snow Light Snow
10:54 PM 33.8 °F 24.3 °F 32.0 °F 93% 30.15 in 7.0 mi South 13.8 mph - 0.00 in Snow Light Snow
10:56 PM 33.1 °F 23.0 °F 32.0 °F 96% 30.17 in 8.0 mi South 15.0 mph - 0.00 in   Overcast
11:56 PM 35.1 °F 28.6 °F 30.0 °F 82% 30.18 in 10.0 mi SSW 8.1 mph 18.4 mph 0.00 in Rain Light Rain